User: anonymous   Login
Location: Hoyos del Collado
(40.3594°N, 5.2003°W)
Time: 09:08:30
(UTC+00:00)
Language:

Okean 1 Rocket - Orbit

View from above orbital plane
View from above orbital plane
View from above satellite
View from above satellite

Ground track
Ground track

The orbit data is extracted from the following two-line orbital elements,

1 19275U 88056B   24166.90666491  .00000825  00000-0  96175-4 0  9998
2 19275  82.5155  98.8287 0021158  71.8259 288.5257 14.83903052920781
Epoch (UTC): 14 June 2024 21:45:35
Eccentricity: 0.0021158
inclination: 82.5155°
perigee height: 602 km
apogee height: 632 km
right ascension of ascending node: 98.8287°
argument of perigee: 71.8259°
revolutions per day: 14.83903052
mean anomaly at epoch: 288.5257°
orbit number at epoch: 92078

The dashed part of the orbit path shows where the satellite is in the earth's shadow,  

DLR